DateTimeUTC,F1_A11,F1_S11,BsB_S11,BsG_S11,BsR_S11,BbsB_S11,BbsG_S11,BbsR_S11,BaB_A11,BaG_A11,BaR_A11,Tu_S11,T_S11,Uu_S11,U_S11,P_S11,T1_A11
2021-10-14T14:00:00Z,00000200,20000000,,,,,,,0000.31,0000.05,0000.33,17.5,24.3,03.2,02.1,0663.8,31.0
2021-10-14T14:01:00Z,00000200,20000000,,,,,,,-000.38,0000.06,-000.11,17.6,24.3,03.2,02.1,0663.9,31.0
2021-10-14T14:02:00Z,00000200,20000000,,,,,,,-000.28,-000.34,-000.31,17.6,24.3,03.2,02.1,0663.9,31.0
2021-10-14T14:03:00Z,00000200,60000000,,,,,,,0000.28,0000.03,0000.06,17.7,24.4,03.2,02.1,0663.9,31.0
2021-10-14T14:04:00Z,00000200,40000000,-000.28,-000.10,0000.31,-000.06,-000.17,0000.18,0000.09,-000.10,0000.07,17.9,24.3,03.0,02.0,0664.8,31.0
2021-10-14T14:05:00Z,00000200,00000000,0000.51,0000.19,0000.29,-000.01,0000.12,0000.02,-000.54,-000.38,-000.08,18.0,24.3,03.1,02.1,0664.9,31.0
2021-10-14T14:06:00Z,00000200,00000000,0000.03,-000.03,0000.38,0000.55,0000.14,0000.21,0000.22,0000.26,0000.07,17.9,24.3,03.1,02.1,0664.8,31.0
2021-10-14T14:07:00Z,00000200,00000000,-000.21,0000.09,0000.21,0000.39,-000.41,-000.10,-000.03,0000.00,-000.28,17.9,24.2,03.1,02.1,0664.8,31.0
2021-10-14T14:08:00Z,00000200,00000000,0000.32,-000.15,0000.18,0000.10,0000.04,0000.08,-000.14,-000.26,-000.26,17.8,24.2,03.0,02.0,0665.0,31.0
2021-10-14T14:09:00Z,00000200,00000000,0001.15,-000.06,0000.47,0000.01,-000.01,-000.12,0000.10,0000.02,0000.22,17.8,24.1,03.0,02.0,0664.9,31.0
2021-10-14T14:10:00Z,00000200,00000000,0000.27,0000.07,0000.21,0000.06,0000.02,-000.24,-000.41,-000.17,-000.35,17.7,24.1,03.0,02.0,0665.0,30.9
2021-10-14T14:11:00Z,00000200,00000000,-000.01,0000.17,0000.27,0000.22,0000.05,0000.29,0000.25,0000.30,0000.01,17.7,24.1,02.9,02.0,0665.0,30.9
2021-10-14T14:12:00Z,00000200,00000000,0000.54,0000.02,0000.35,0000.07,0000.07,0000.38,0000.24,0000.21,0000.47,17.7,24.1,03.0,02.0,0665.0,30.9
2021-10-14T14:13:00Z,00000200,00000000,0000.11,-000.06,0000.01,-000.15,-000.17,0000.15,-000.15,-000.10,-000.25,17.7,24.1,03.0,02.0,0665.1,30.9
2021-10-14T14:14:00Z,00000200,00000000,0000.56,-000.00,0000.20,0000.30,0000.09,0000.20,0000.34,0000.03,0000.51,17.8,24.1,03.0,02.0,0665.2,31.0
2021-10-14T14:15:00Z,00000200,00000000,-000.10,-000.26,-000.06,-000.19,0000.35,-000.13,0000.07,0000.21,-000.14,17.8,24.1,03.0,02.1,0665.2,31.0
2021-10-14T14:16:00Z,00000200,00000000,0000.55,0000.21,0000.38,0000.11,0000.03,0000.13,-000.03,0000.22,0000.40,17.9,24.2,03.0,02.0,0665.2,31.0
2021-10-14T14:17:00Z,00000200,00000000,-000.53,0000.27,0000.18,0000.82,-000.26,-000.05,0000.16,0000.17,-000.13,18.0,24.2,03.0,02.0,0665.3,31.0
2021-10-14T14:18:00Z,00000200,00000000,-000.04,0000.31,-000.10,-000.13,-000.25,-000.27,-000.33,-000.45,0000.01,18.0,24.2,02.9,02.0,0665.3,31.0
2021-10-14T14:19:00Z,00000200,00000000,-000.19,0000.18,0000.16,0000.12,-000.21,-000.18,0000.09,-000.21,-000.29,18.1,24.3,03.0,02.0,0665.3,31.0
2021-10-14T14:20:00Z,00000200,00000000,0001.10,0000.25,0000.45,0000.05,-000.08,-000.12,0000.17,0000.28,-000.15,18.0,24.2,03.0,02.1,0665.3,31.0
2021-10-14T14:21:00Z,00000200,00000000,0000.26,-000.02,0000.42,0000.40,0000.01,-000.06,-000.41,0000.17,0000.25,18.0,24.2,03.0,02.0,0665.3,31.0
2021-10-14T14:22:00Z,00000200,00000000,0000.35,0000.15,0000.46,0000.38,-000.08,-000.26,0000.22,0000.08,-000.22,17.9,24.2,03.1,02.1,0665.2,31.0
2021-10-14T14:23:00Z,00000200,00000000,0000.35,0000.03,0000.19,0000.35,0000.14,-000.49,0000.17,-000.12,0000.22,17.9,24.1,03.1,02.1,0665.3,31.0
2021-10-14T14:24:00Z,00000200,00000000,0000.71,-000.12,0000.11,-000.07,0000.00,-000.27,-000.03,-000.53,-000.05,17.8,24.1,03.1,02.1,0665.1,30.9
2021-10-14T14:25:00Z,00000200,00000000,0000.07,-000.30,0000.52,0001.25,0000.24,-000.02,-000.02,0000.07,-000.27,17.8,24.1,03.1,02.1,0665.1,30.9
2021-10-14T14:26:00Z,00000200,00000000,0000.14,-000.05,0000.27,-000.66,-000.29,0000.10,-000.07,0000.05,0000.10,17.7,24.1,03.0,02.0,0665.2,30.9
2021-10-14T14:27:00Z,00000200,00000000,0000.32,0000.02,0000.21,0000.26,-000.04,0000.15,0000.31,0000.51,0000.27,17.7,24.1,03.1,02.1,0665.1,30.9
2021-10-14T14:28:00Z,00000200,00000000,0000.54,0000.26,0000.12,0000.11,0000.05,0000.06,0000.19,0000.14,0000.05,17.7,24.1,03.0,02.0,0665.2,30.9
2021-10-14T14:29:00Z,00000200,00000000,0000.50,0000.06,0000.10,-000.26,0000.03,0000.06,-000.23,-000.06,0000.28,17.8,24.1,03.0,02.0,0665.2,31.0
2021-10-14T14:30:00Z,00000200,00000000,0000.16,0000.19,0000.59,-000.41,-000.29,0000.27,-000.07,-000.05,-000.16,17.9,24.1,03.0,02.0,0665.4,31.0
2021-10-14T14:31:00Z,00000200,00000000,0000.99,-000.23,-000.07,-000.22,0000.15,-000.33,0000.04,-000.19,-000.35,18.0,24.2,03.0,02.0,0665.1,31.0
2021-10-14T14:32:00Z,00000200,00000000,-000.65,0000.03,0000.09,0000.01,0000.21,0000.14,0000.24,0000.12,0000.28,18.0,24.2,02.9,02.0,0665.3,31.0
2021-10-14T14:33:00Z,00000200,00000000,0000.59,0000.51,0000.19,0000.04,0000.04,-000.12,-000.23,0000.11,-000.14,18.1,24.2,03.0,02.0,0665.4,31.0
2021-10-14T14:34:00Z,00000200,00000000,-000.70,0000.28,0000.19,0000.53,0000.17,0000.15,-000.39,-000.24,-000.01,18.0,24.2,03.0,02.0,0665.4,31.0
2021-10-14T14:35:00Z,00000200,00000000,0000.76,-000.16,0000.40,-000.11,0000.34,-000.16,0000.42,0000.20,-000.08,18.0,24.2,02.9,02.0,0665.5,31.0
2021-10-14T14:36:00Z,00000200,00000000,-000.60,0000.00,-000.11,0000.26,-000.18,-000.11,-000.33,-000.32,-000.09,17.9,24.2,02.8,01.9,0665.6,30.9
2021-10-14T14:37:00Z,00000200,00000000,-000.16,-000.46,0000.12,-000.50,-000.01,0000.12,0000.06,-000.35,-000.23,17.9,24.1,03.0,02.0,0665.6,30.9
2021-10-14T14:38:00Z,00000200,00000000,-000.02,0000.32,0000.34,0000.32,0000.14,0000.21,-000.14,0000.29,0000.10,17.8,24.1,03.0,02.1,0665.6,30.9
2021-10-14T14:39:00Z,00000200,00000000,-000.45,0000.16,0000.31,0000.92,0000.17,-000.01,0000.39,0000.26,0000.27,17.8,24.1,02.9,02.0,0665.5,30.9
2021-10-14T14:40:00Z,00000200,00000000,0000.45,0000.30,-000.08,0000.36,0000.13,-000.32,-000.05,0000.03,0000.03,17.7,24.1,03.1,02.1,0665.5,30.9
2021-10-14T14:41:00Z,00000200,00000000,0000.91,0000.12,0000.26,0000.60,0000.26,0000.23,-000.14,-000.13,0000.18,17.7,24.0,03.0,02.0,0665.5,30.9
2021-10-14T14:42:00Z,00000200,00000000,0000.70,-000.19,0000.42,0000.51,0000.06,-000.03,0000.27,0000.19,-000.13,17.7,24.0,03.0,02.0,0665.5,30.9
2021-10-14T14:43:00Z,00000200,00000000,-000.15,0000.18,0000.12,0000.51,0000.18,-000.12,0000.18,-000.04,0000.00,17.7,24.0,03.0,02.0,0665.4,30.9
2021-10-14T14:44:00Z,00000200,00000000,-000.57,0000.01,0000.30,0000.20,-000.09,0000.16,0000.19,0000.42,0000.20,17.8,24.1,03.0,02.0,0665.5,31.0
2021-10-14T14:45:00Z,00000200,00000000,0000.05,0000.10,0000.24,0000.13,0000.15,-000.22,0000.04,-000.17,0000.19,17.9,24.1,03.1,02.1,0665.5,31.0
2021-10-14T14:46:00Z,00000200,00000000,0000.06,0000.05,0000.22,0000.74,-000.04,0000.09,-000.01,0000.41,0000.43,18.0,24.1,03.0,02.0,0665.6,31.0
2021-10-14T14:47:00Z,00000200,00000000,0000.13,0000.14,0000.03,0000.15,-000.08,-000.18,-000.16,-000.08,-000.29,18.1,24.2,03.0,02.0,0665.5,31.0
2021-10-14T14:48:00Z,00000200,00000000,0000.38,-000.26,-000.20,0000.14,0000.13,0000.04,0000.11,0000.05,-000.17,18.1,24.2,03.0,02.1,0665.4,31.0
2021-10-14T14:49:00Z,00000200,00000000,0000.39,-000.01,0000.28,0000.30,-000.11,0000.49,-000.01,-000.32,-000.02,18.1,24.2,02.9,02.0,0665.4,31.0
2021-10-14T14:50:00Z,00000200,00000000,0000.59,-000.14,0000.08,0000.08,0000.15,-000.12,0000.03,0000.06,-000.20,18.1,24.3,03.0,02.1,0665.4,31.0
2021-10-14T14:51:00Z,00000200,00000000,0000.28,0000.04,0000.03,-000.33,-000.11,-000.07,0000.08,-000.27,0000.05,18.0,24.2,02.9,02.0,0665.4,31.0
2021-10-14T14:52:00Z,00000200,00000000,-000.15,0000.40,0000.20,0000.43,0000.27,-000.11,-000.08,0000.10,0000.14,18.0,24.2,03.0,02.0,0665.4,31.0
2021-10-14T14:53:00Z,00000200,00000000,0000.08,0000.08,0000.22,-000.02,-000.11,0000.03,-000.12,-000.38,-000.14,17.9,24.2,02.9,02.0,0665.4,31.0
2021-10-14T14:54:00Z,00000200,00000000,0000.69,0000.48,0000.04,-000.01,-000.04,-000.08,-000.08,0000.26,-000.20,17.9,24.1,03.0,02.0,0665.4,31.0
2021-10-14T14:55:00Z,00000200,00000000,0000.38,0000.36,0000.03,0000.54,-000.06,-000.27,0000.02,0000.06,-000.02,17.8,24.1,02.9,02.0,0665.5,30.9
2021-10-14T14:56:00Z,00000200,00000000,-000.55,0000.00,0000.15,0000.07,0000.04,-000.10,-000.15,-000.13,0000.20,17.8,24.1,02.9,02.0,0665.7,30.9
2021-10-14T14:57:00Z,00000200,40000000,,,,,,,0000.62,0000.41,0000.67,17.8,24.1,02.2,01.5,0665.5,30.9
2021-10-14T14:58:00Z,00000200,60000000,,,,,,,-000.22,0000.02,-000.36,17.5,24.2,02.9,01.9,0664.7,31.0
2021-10-14T14:59:00Z,00000200,20000000,,,,,,,-000.27,0000.01,-000.04,17.6,24.3,02.9,01.9,0664.8,31.0
